Location: Mentone
(34.5413°N, 85.5351°W)
Time: 00:18:23
(UTC-05:00)

Vanguard 3 - All Passes

Search period start: 27 September 2016 00:00
Search period end: 07 October 2016 00:00
Orbit: 508 x 3266 km, 33.4° (Epoch: 26 September)

Date Brightness Start Highest point End Pass type
(mag) Time Alt. Az. Time Alt. Az. Time Alt. Az.
27 Sep - 01:54:24 10° SW 02:10:07 65° SSE 02:29:49 10° ENE visible
27 Sep - 04:08:15 10° W 04:27:24 86° S 04:45:59 10° E visible
27 Sep - 06:24:50 10° W 06:45:06 79° SSW 07:00:07 10° ESE daylight
27 Sep - 08:43:05 10° WNW 09:00:05 46° SW 09:11:14 10° SSE daylight
27 Sep - 11:07:14 10° WSW 11:11:29 12° SW 11:15:12 10° SW daylight
27 Sep - 22:35:18 10° SSE 22:42:04 16° SE 22:50:19 10° E night (unlit)
28 Sep - 00:41:08 10° SW 00:54:26 49° SE 01:12:50 10° ENE visible
28 Sep - 02:53:06 10° WSW 03:10:20 80° SSE 03:30:11 10° E visible
28 Sep - 05:08:21 10° W 05:28:17 86° S 05:45:38 10° E visible
28 Sep - 07:25:35 10° WNW 07:44:58 63° SSW 07:58:29 10° SE daylight
28 Sep - 09:45:24 10° W 09:58:06 26° SW 10:07:10 10° S daylight
28 Sep - 23:29:05 10° SSW 23:39:44 33° SE 23:54:50 10° E visible
29 Sep - 01:38:53 10° SW 01:53:48 69° SSE 02:13:43 10° ENE visible
29 Sep - 03:52:35 10° W 04:11:06 87° S 04:30:19 10° E visible
29 Sep - 06:08:44 10° W 06:28:52 76° SSW 06:44:45 10° ESE visible
29 Sep - 08:26:48 10° WNW 08:43:55 43° SW 08:55:47 10° SSE daylight
29 Sep - 10:54:13 10° WSW 10:55:30 10° WSW 10:56:44 10° SW daylight
29 Sep - 22:18:56 10° SSE 22:25:57 18° SE 22:35:01 10° E night (unlit)
30 Sep - 00:25:38 10° SW 00:38:10 53° SSE 00:56:35 10° ENE visible
30 Sep - 02:37:37 10° WSW 02:54:03 82° SSE 03:14:15 10° E visible
30 Sep - 04:52:31 10° W 05:12:01 84° S 05:30:06 10° ESE visible
30 Sep - 07:09:22 10° WNW 07:28:43 59° SSW 07:43:02 10° SE daylight
30 Sep - 09:29:31 10° W 09:41:56 24° SW 09:51:17 10° S daylight
30 Sep - 23:13:28 10° SSW 23:23:34 36° SE 23:38:40 10° E visible
01 Oct - 01:23:31 10° WSW 01:37:34 72° SSE 01:57:31 10° E visible
01 Oct - 03:37:01 10° W 03:54:50 87° S 04:14:33 10° E visible
01 Oct - 05:52:43 10° W 06:12:33 73° SSW 06:29:14 10° ESE visible
01 Oct - 08:10:38 10° W 08:27:37 39° SW 08:40:07 10° SSE daylight
01 Oct - 22:02:55 10° S 22:09:56 20° SE 22:19:25 10° E night (unlit)
02 Oct - 00:10:18 10° SW 00:22:02 57° SSE 00:40:14 10° ENE visible
02 Oct - 02:22:16 10° WSW 02:37:50 84° S 02:58:12 10° E visible
02 Oct - 04:36:47 10° W 04:55:41 82° SSW 05:14:26 10° ESE visible
02 Oct - 06:53:14 10° WNW 07:12:20 55° SSW 07:27:25 10° SE daylight
02 Oct - 09:13:50 10° W 09:25:41 21° SW 09:35:06 10° S daylight
02 Oct - 22:58:03 10° SSW 23:07:32 39° SE 23:22:24 10° E visible
03 Oct - 01:08:17 10° WSW 01:21:28 76° SSE 01:41:14 10° E visible
03 Oct - 03:21:33 10° W 03:38:34 86° S 03:58:39 10° E visible
03 Oct - 05:36:48 10° W 05:56:09 69° SSW 06:13:34 10° SE visible
03 Oct - 07:54:35 10° W 08:11:13 36° SW 08:24:15 10° SSE daylight
03 Oct - 21:47:11 10° S 21:54:00 22° SE 22:03:38 10° E night (unlit)
03 Oct - 23:55:05 10° SW 00:06:01 61° SSE 00:23:50 10° ENE visible
04 Oct - 02:07:00 10° W 02:21:42 85° S 02:42:04 10° E visible
04 Oct - 04:21:08 10° W 04:39:20 80° SSW 04:58:37 10° ESE visible
04 Oct - 06:37:13 10° WNW 06:55:52 51° SW 07:11:37 10° SE daylight
04 Oct - 08:58:26 10° W 09:09:22 19° SW 09:18:32 10° SSW daylight
04 Oct - 22:42:47 10° SSW 22:51:37 42° SE 23:06:05 10° E visible
05 Oct - 00:53:09 10° WSW 01:05:28 78° SSE 01:24:53 10° E visible
05 Oct - 03:06:10 10° W 03:22:21 85° S 03:42:39 10° E visible
05 Oct - 05:20:59 10° WNW 05:39:41 65° SSW 05:57:43 10° SE visible
05 Oct - 07:38:44 10° W 07:54:46 32° SW 08:08:07 10° SSE daylight
05 Oct - 21:31:40 10° S 21:38:10 24° SE 21:47:44 10° E night (unlit)
05 Oct - 23:40:01 10° SW 23:50:09 65° SSE 00:07:23 10° E visible
06 Oct - 01:51:50 10° W 02:05:38 86° S 02:25:51 10° E visible
06 Oct - 04:05:35 10° W 04:22:58 76° SSW 04:42:38 10° ESE visible
06 Oct - 06:21:21 10° W 06:39:22 47° SW 06:55:35 10° SSE daylight
06 Oct - 08:43:30 10° W 08:53:02 16° SW 09:01:28 10° SSW daylight
06 Oct - 22:27:39 10° SW 22:35:50 45° SE 22:49:44 10° E night (unlit)
